Regional Weather Roundup
Issued by NWS State College, PA

Home | Current Version | Previous Version | Graphics & Text | Print | Product List | Glossary Off
Versions: 1 2 3 4 5 6 7 8 9 10 11 12 13 14 15 16 17 18 19 20 21 22 23 24 25 26 27 28 29 30 31 32 33 34 35 36 37 38 39 40 41 42 43 44 45 46 47 48 49 50

000
ASUS41 KCTP 272010
RWRCTP

REGIONAL WEATHER ROUNDUP
NATIONAL WEATHER SERVICE STATE COLLEGE PA
400 PM EDT THU AUG 27 2015

Note: "fair" indicates few or no clouds below 12,000 feet with no
significant weather and/or obstructions to visibility.

* = STATION THAT DOES NOT REPORT PRECIPITATION /E.G. RAIN...SNOW...ETC/
    THUNDER OR FOG.

PAZ002>004-007>009-013>016-020>023-029>032-272100-
WESTERN PENNSYLVANIA

CITY           SKY/WX    TMP DP  RH WIND       PRES   REMARKS
ERIE           CLOUDY    67  54  63 W7        30.15F
MEADVILLE      CLOUDY    68  52  56 NW8       30.16F
FRANKLIN*      PTSUNNY   68  54  60 NW5       30.17F
NEW CASTLE     FAIR      71  58  63 CALM      30.15F
BEAVER COUNTY  CLOUDY    68  57  68 CALM      30.16F
BUTLER*        CLOUDY    70  55  60 NW5       30.17F
PITTSBURGH INT CLOUDY    68  54  60 VRB3      30.15F
PITTSBURGH     CLOUDY    68  50  52 VRB5      30.15F
INDIANA*       CLOUDY    68  54  60 VRB5      30.18F
LATROBE        CLOUDY    68  55  64 CALM      30.17F
WASHINGTON CO* CLOUDY    70  54  56 NW7       30.16F
$$

PAZ004>006-010>012-017>019-024>028-033>037-041-042-045-046-049>053-272100-
CENTRAL PENNSYLVANIA

CITY           SKY/WX    TMP DP  RH WIND       PRES   REMARKS
BRADFORD       CLOUDY    66  51  58 NW8       30.15F
DUBOIS         CLOUDY    68  54  60 NW8       30.15F
CLEARFIELD     NOT AVBL
JOHNSTOWN      CLOUDY    64  52  64 NW9       30.17F
ALTOONA        CLOUDY    70  52  52 W7        30.15F
STATE COLLEGE  CLOUDY    68  55  64 NW6       30.13F
WILLIAMSPORT   CLOUDY    73  53  49 W7        30.09F
SELINSGROVE    CLOUDY    72  57  59 N3        30.11F
FT INDIANTOWN  CLOUDY    73  56  56 N10       30.09F
CAPITAL CITY   CLOUDY    74  54  49 W7        30.10F
HARRISBURG     PTSUNNY   76  53  44 NW9       30.09F
YORK           CLOUDY    74  58  57 N8        30.10F
$$

PAZ038>040-043-044-047-048-054-055-060>062-067>071-272100-
EASTERN PENNSYLVANIA

CITY           SKY/WX    TMP DP  RH WIND       PRES   REMARKS
SCRANTON       CLOUDY    70  52  52 NW5       30.11F
MOUNT POCONO   CLOUDY    67  51  56 NW12G20   30.13S
ALLENTOWN      CLOUDY    75  56  51 NW10      30.08F
QUAKERTOWN*    CLOUDY    75  55  50 NW8       30.09F
READING        CLOUDY    75  54  47 NW10      30.08F
LANCASTER      CLOUDY    75  55  49 N14       30.09F
COATESVILLE    CLOUDY    73  54  49 NW7       30.10S
POTTSTOWN      CLOUDY    75  56  51 NW6       30.09F
BLUE BELL      PTSUNNY   77  57  50 NW6       30.07S
DOYLESTOWN     PTSUNNY   74  53  48 NW6       30.07F
WILLOW GROVE   NOT AVBL
NORTH PHILA    PTSUNNY   79  51  37 VRB5      30.07F
PHILADELPHIA   PTSUNNY   80  51  36 NW13G22   30.06F
$$



USA.gov is the U.S. government's official web portal to all federal, state and local government web resources and services.